User: anonymous   Login
Location: Hodgeman County Ambulance
(38.0844°N, 99.8949°W)
Time: 16:29:01
(UTC+00:00)
Language:

Envisat - Orbit

View from above orbital plane
View from above orbital plane
View from above satellite
View from above satellite

Ground track
Ground track

The orbit data is extracted from the following two-line orbital elements,

1 27386U 02009A   21291.48343036  .00000064  00000-0  34785-4 0  9994
2 27386  98.1598 279.3178 0001217  90.3154  70.4680 14.38048046 28753
Epoch (UTC): 18 October 2021 11:36:08
Eccentricity: 0.0001217
inclination: 98.1598°
perigee height: 764 km
apogee height: 766 km
right ascension of ascending node: 279.3178°
argument of perigee: 90.3154°
revolutions per day: 14.38048046
mean anomaly at epoch: 70.4680°
orbit number at epoch: 2875

The dashed part of the orbit path shows where the satellite is in the earth's shadow,  

DLR